| time (UTC) | temp F | wind direction | speed knots | gust knots | rain 1hr in | rain 24hr in | rain mn in | humidity % | barometer mb |
| 20260507151511 | 57 | 339 | 0.0 | 0.0 | 0.00 | 0.02 | 0.01 | 74 | 1011.2 |
| 20260507151011 | 57 | 339 | 0.0 | 0.0 | 0.00 | 0.03 | 0.01 | 73 | 1011.4 |
| 20260507150510 | 57 | 339 | 0.0 | 0.0 | 0.00 | 0.04 | 0.01 | 73 | 1011.2 |
| 20260507150011 | 57 | 339 | 0.0 | 0.0 | 0.00 | 0.05 | 0.01 | 73 | 1011.1 |
| 20260507145011 | 57 | 339 | 0.0 | 0.0 | 0.00 | 0.05 | 0.01 | 73 | 1010.9 |
| 20260507144511 | 57 | 339 | 0.0 | 0.0 | 0.00 | 0.05 | 0.01 | 73 | 1010.9 |
| 20260507143011 | 57 | 339 | 0.0 | 0.0 | 0.00 | 0.05 | 0.01 | 74 | 1011.1 |
| 20260507142512 | 57 | 339 | 0.0 | 0.0 | 0.00 | 0.05 | 0.01 | 74 | 1011.3 |
| 20260507142012 | 57 | 339 | 0.0 | 0.0 | 0.00 | 0.05 | 0.01 | 74 | 1011.3 |
| 20260507141510 | 57 | 339 | 0.0 | 0.0 | 0.00 | 0.05 | 0.01 | 75 | 1011.3 |
| 20260507141012 | 57 | 339 | 0.0 | 0.0 | 0.00 | 0.06 | 0.01 | 74 | 1011.2 |
| 20260507140011 | 57 | 339 | 0.0 | 0.0 | 0.00 | 0.06 | 0.01 | 75 | 1011.2 |
| 20260507135511 | 57 | 339 | 0.0 | 0.0 | 0.00 | 0.06 | 0.01 | 76 | 1011.3 |
| 20260507135011 | 57 | 359 | 0.0 | 0.0 | 0.00 | 0.06 | 0.01 | 78 | 1011.3 |
| 20260507134011 | 58 | 4 | 0.0 | 0.0 | 0.00 | 0.06 | 0.01 | 80 | 1011.3 |
| 20260507133511 | 58 | 4 | 0.0 | 0.0 | 0.00 | 0.06 | 0.01 | 80 | 1011.1 |
| 20260507133011 | 57 | 4 | 0.0 | 0.0 | 0.00 | 0.06 | 0.01 | 80 | 1011.1 |
| 20260507132510 | 57 | 4 | 0.0 | 0.0 | 0.00 | 0.06 | 0.01 | 81 | 1010.8 |
| 20260507132011 | 57 | 4 | 0.0 | 0.0 | 0.00 | 0.06 | 0.01 | 81 | 1010.9 |
| 20260507130512 | 57 | 4 | 0.0 | 0.0 | 0.00 | 0.06 | 0.01 | 81 | 1010.8 |
| 20260507130010 | 57 | 4 | 0.0 | 0.0 | 0.00 | 0.06 | 0.01 | 81 | 1011.2 |
| 20260507125511 | 57 | 4 | 0.0 | 0.0 | 0.00 | 0.06 | 0.01 | 81 | 1011.2 |
| 20260507125011 | 58 | 4 | 0.0 | 0.0 | 0.00 | 0.06 | 0.01 | 82 | 1011.1 |
| 20260507124511 | 58 | 4 | 0.0 | 0.0 | 0.01 | 0.06 | 0.01 | 82 | 1011.0 |
| 20260507124011 | 58 | 4 | 0.0 | 0.0 | 0.01 | 0.06 | 0.01 | 82 | 1011.0 |
| 20260507123511 | 58 | 4 | 0.0 | 0.0 | 0.01 | 0.06 | 0.01 | 82 | 1010.7 |
| 20260507123011 | 58 | 4 | 0.0 | 0.0 | 0.01 | 0.06 | 0.01 | 82 | 1010.6 |
| 20260507121010 | 58 | 4 | 0.0 | 0.0 | 0.01 | 0.06 | 0.01 | 82 | 1010.7 |
| 20260507115511 | 57 | 4 | 0.0 | 0.0 | 0.01 | 0.06 | 0.01 | 82 | 1011.1 |
| 20260507115010 | 57 | 4 | 0.0 | 0.0 | 0.01 | 0.06 | 0.01 | 81 | 1011.0 |
| 20260507114511 | 57 | 4 | 0.0 | 0.0 | 0.00 | 0.05 | 0.00 | 81 | 1010.9 |
| 20260507114011 | 57 | 4 | 0.0 | 0.0 | 0.00 | 0.05 | 0.00 | 81 | 1010.7 |
| 20260507113511 | 57 | 4 | 0.0 | 0.0 | 0.00 | 0.05 | 0.00 | 81 | 1010.7 |
| 20260507113010 | 58 | 4 | 0.0 | 0.0 | 0.00 | 0.05 | 0.00 | 81 | 1010.5 |
| 20260507112511 | 58 | 4 | 0.0 | 0.0 | 0.00 | 0.05 | 0.00 | 81 | 1010.3 |
| 20260507111510 | 58 | 4 | 0.0 | 0.0 | 0.00 | 0.05 | 0.00 | 81 | 1010.5 |
| 20260507111010 | 58 | 4 | 0.0 | 0.0 | 0.00 | 0.05 | 0.00 | 81 | 1010.6 |
| 20260507110511 | 58 | 4 | 0.0 | 0.0 | 0.00 | 0.05 | 0.00 | 80 | 1010.5 |
| 20260507110011 | 58 | 4 | 0.0 | 0.0 | 0.00 | 0.05 | 0.00 | 80 | 1010.4 |
| 20260507105510 | 58 | 4 | 0.0 | 0.0 | 0.00 | 0.05 | 0.00 | 80 | 1010.2 |
| 20260507105011 | 58 | 4 | 0.0 | 0.0 | 0.00 | 0.05 | 0.00 | 80 | 1010.2 |
| 20260507104511 | 58 | 4 | 0.0 | 0.0 | 0.00 | 0.05 | 0.00 | 80 | 1010.3 |
| 20260507104011 | 58 | 359 | 0.0 | 0.0 | 0.00 | 0.05 | 0.00 | 80 | 1010.1 |
| 20260507103510 | 58 | 4 | 0.0 | 0.9 | 0.00 | 0.05 | 0.00 | 80 | 1009.8 |
| 20260507103011 | 59 | 5 | 0.0 | 0.0 | 0.00 | 0.05 | 0.00 | 80 | 1009.8 |
| 20260507102010 | 59 | 7 | 0.0 | 0.0 | 0.00 | 0.05 | 0.00 | 80 | 1009.5 |
| 20260507101511 | 59 | 5 | 0.0 | 0.0 | 0.00 | 0.05 | 0.00 | 80 | 1009.6 |
| 20260507101011 | 59 | 6 | 0.0 | 0.0 | 0.00 | 0.05 | 0.00 | 80 | 1009.9 |
| 20260507100510 | 59 | 6 | 0.0 | 0.0 | 0.00 | 0.05 | 0.00 | 80 | 1010.1 |
| 20260507095511 | 60 | 359 | 0.0 | 0.0 | 0.00 | 0.05 | 0.00 | 80 | 1009.9 |
| 20260507095012 | 60 | 359 | 0.0 | 0.0 | 0.00 | 0.05 | 0.00 | 79 | 1009.6 |
| 20260507094511 | 60 | 359 | 0.0 | 0.0 | 0.00 | 0.05 | 0.00 | 79 | 1009.6 |
| 20260507094010 | 61 | 359 | 0.0 | 0.0 | 0.00 | 0.05 | 0.00 | 80 | 1009.7 |
| 20260507093511 | 61 | 4 | 0.0 | 0.0 | 0.00 | 0.05 | 0.00 | 79 | 1009.8 |
| 20260507093010 | 61 | 4 | 0.0 | 0.0 | 0.00 | 0.05 | 0.00 | 79 | 1009.8 |
| 20260507092510 | 61 | 4 | 0.0 | 0.0 | 0.00 | 0.05 | 0.00 | 79 | 1009.9 |
| 20260507092011 | 61 | 354 | 0.0 | 0.0 | 0.00 | 0.05 | 0.00 | 78 | 1009.8 |
| 20260507091511 | 62 | 345 | 0.0 | 0.0 | 0.00 | 0.05 | 0.00 | 77 | 1009.7 |
| 20260507090511 | 63 | 345 | 0.0 | 0.0 | 0.00 | 0.05 | 0.00 | 76 | 1009.9 |
| 20260507090011 | 64 | 17 | 0.0 | 0.0 | 0.00 | 0.05 | 0.00 | 77 | 1009.8 |
| 20260507085010 | 65 | 330 | 0.0 | 0.0 | 0.00 | 0.05 | 0.00 | 78 | 1009.6 |
| 20260507084511 | 66 | 328 | 0.0 | 0.0 | 0.00 | 0.05 | 0.00 | 79 | 1009.3 |
| 20260507084011 | 67 | 353 | 0.0 | 0.0 | 0.00 | 0.05 | 0.00 | 80 | 1008.9 |
| 20260507083510 | 67 | 300 | 0.0 | 0.0 | 0.00 | 0.05 | 0.00 | 81 | 1008.7 |
| 20260507083010 | 67 | 228 | 0.0 | 0.0 | 0.00 | 0.05 | 0.00 | 81 | 1008.7 |
| 20260507082511 | 67 | 228 | 0.0 | 0.0 | 0.00 | 0.05 | 0.00 | 81 | 1008.7 |
| 20260507082011 | 67 | 228 | 0.0 | 0.0 | 0.00 | 0.05 | 0.00 | 81 | 1008.9 |
| 20260507081511 | 67 | 228 | 0.0 | 0.0 | 0.00 | 0.05 | 0.00 | 81 | 1008.6 |
| 20260507080511 | 67 | 228 | 0.0 | 0.0 | 0.00 | 0.05 | 0.00 | 80 | 1008.4 |
| 20260507080010 | 67 | 228 | 0.0 | 0.0 | 0.00 | 0.05 | 0.00 | 80 | 1008.4 |
| 20260507075510 | 68 | 228 | 0.0 | 0.0 | 0.00 | 0.05 | 0.00 | 80 | 1008.3 |
| 20260507074511 | 68 | 228 | 0.0 | 0.0 | 0.00 | 0.05 | 0.00 | 80 | 1008.2 |
| 20260507074010 | 68 | 228 | 0.0 | 0.0 | 0.00 | 0.05 | 0.00 | 79 | 1008.1 |
| 20260507073511 | 68 | 225 | 0.0 | 0.0 | 0.00 | 0.05 | 0.00 | 79 | 1008.1 |
| 20260507073011 | 68 | 225 | 0.0 | 0.0 | 0.00 | 0.05 | 0.00 | 79 | 1008.2 |
| 20260507072510 | 69 | 224 | 0.0 | 0.0 | 0.00 | 0.05 | 0.00 | 78 | 1008.5 |
| 20260507072010 | 69 | 224 | 0.0 | 0.0 | 0.00 | 0.05 | 0.00 | 78 | 1008.5 |
| 20260507071510 | 69 | 303 | 0.0 | 0.0 | 0.00 | 0.05 | 0.00 | 77 | 1008.7 |
| 20260507071011 | 69 | 301 | 0.0 | 0.9 | 0.00 | 0.05 | 0.00 | 76 | 1008.5 |
| 20260507070510 | 69 | 302 | 0.0 | 0.0 | 0.00 | 0.05 | 0.00 | 76 | 1008.4 |
| 20260507070013 | 69 | 297 | 0.0 | 1.7 | 0.00 | 0.05 | 0.00 | 75 | 1008.4 |
| 20260507065511 | 69 | 270 | 0.0 | 0.0 | 0.00 | 0.05 | 0.00 | 75 | 1008.3 |
| 20260507065011 | 69 | 276 | 0.0 | 4.3 | 0.00 | 0.05 | 0.00 | 75 | 1008.1 |
| 20260507064010 | 69 | 206 | 0.0 | 0.9 | 0.00 | 0.05 | 0.00 | 75 | 1007.9 |
| 20260507063511 | 69 | 240 | 0.0 | 1.7 | 0.00 | 0.05 | 0.00 | 75 | 1007.9 |
| 20260507062510 | 69 | 272 | 0.0 | 0.9 | 0.00 | 0.05 | 0.00 | 75 | 1007.9 |
| 20260507062010 | 70 | 239 | 0.0 | 1.7 | 0.00 | 0.05 | 0.00 | 75 | 1007.7 |
| 20260507061511 | 70 | 204 | 0.0 | 2.6 | 0.00 | 0.05 | 0.00 | 75 | 1007.8 |
| 20260507061010 | 70 | 243 | 0.9 | 1.7 | 0.00 | 0.05 | 0.00 | 75 | 1007.9 |
| 20260507060511 | 70 | 290 | 0.0 | 0.9 | 0.00 | 0.05 | 0.00 | 75 | 1007.9 |
| 20260507060011 | 69 | 289 | 0.0 | 2.6 | 0.00 | 0.05 | 0.00 | 75 | 1008.0 |
| 20260507055511 | 69 | 199 | 0.0 | 1.7 | 0.00 | 0.05 | 0.00 | 75 | 1008.1 |
| 20260507055010 | 69 | 284 | 0.0 | 1.7 | 0.00 | 0.05 | 0.00 | 75 | 1008.1 |
| 20260507054511 | 69 | 171 | 0.0 | 0.9 | 0.00 | 0.05 | 0.00 | 75 | 1008.3 |
| 20260507054011 | 70 | 148 | 0.0 | 0.0 | 0.00 | 0.05 | 0.00 | 74 | 1008.3 |
| 20260507053010 | 70 | 220 | 0.0 | 1.7 | 0.00 | 0.05 | 0.00 | 73 | 1008.4 |
| 20260507052510 | 70 | 261 | 0.0 | 1.7 | 0.00 | 0.05 | 0.00 | 73 | 1008.6 |
| 20260507051510 | 70 | 122 | 0.0 | 1.7 | 0.00 | 0.05 | 0.00 | 73 | 1008.8 |
| 20260507051010 | 69 | 262 | 0.0 | 1.7 | 0.00 | 0.05 | 0.00 | 74 | 1009.0 |
| 20260507050511 | 69 | 235 | 0.0 | 2.6 | 0.00 | 0.05 | 0.00 | 74 | 1009.0 |
| 20260507050010 | 69 | 280 | 0.0 | 2.6 | 0.00 | 0.05 | 0.00 | 74 | 1009.0 |
| 20260507045510 | 69 | 235 | 0.0 | 1.7 | 0.00 | 0.05 | 0.00 | 74 | 1009.2 |
| 20260507045011 | 69 | 270 | 0.0 | 2.6 | 0.00 | 0.05 | 0.00 | 74 | 1009.3 |
| 20260507044512 | 69 | 293 | 0.0 | 2.6 | 0.00 | 0.05 | 0.00 | 74 | 1009.4 |
| 20260507044010 | 69 | 281 | 0.0 | 2.6 | 0.00 | 0.05 | 0.00 | 74 | 1009.5 |
| 20260507043510 | 69 | 207 | 0.0 | 2.6 | 0.00 | 0.05 | 0.00 | 74 | 1009.5 |
| 20260507043011 | 69 | 56 | 0.0 | 2.6 | 0.00 | 0.05 | 0.00 | 74 | 1009.3 |
| 20260507042010 | 69 | 241 | 0.0 | 2.6 | 0.00 | 0.05 | 0.00 | 74 | 1009.4 |
| 20260507041510 | 69 | 238 | 0.0 | 0.9 | 0.00 | 0.05 | 0.00 | 75 | 1009.3 |
| 20260507041011 | 69 | 212 | 0.0 | 1.7 | 0.00 | 0.05 | 0.00 | 74 | 1009.3 |
| 20260507040011 | 69 | 228 | 0.0 | 1.7 | 0.00 | 0.05 | 0.00 | 75 | 1009.2 |
| 20260507035510 | 69 | 299 | 0.0 | 2.6 | 0.00 | 0.05 | 0.05 | 75 | 1009.2 |
| 20260507035010 | 69 | 244 | 0.0 | 0.0 | 0.00 | 0.05 | 0.05 | 75 | 1009.2 |
| 20260507034511 | 69 | 311 | 0.0 | 0.0 | 0.00 | 0.05 | 0.05 | 76 | 1009.2 |
| 20260507034010 | 68 | 237 | 0.0 | 0.9 | 0.00 | 0.05 | 0.05 | 76 | 1009.0 |
| 20260507033010 | 68 | 228 | 0.0 | 0.0 | 0.00 | 0.05 | 0.05 | 76 | 1008.9 |
| 20260507032511 | 68 | 278 | 0.0 | 0.0 | 0.00 | 0.05 | 0.05 | 76 | 1009.0 |
| 20260507032010 | 68 | 274 | 0.0 | 0.0 | 0.00 | 0.05 | 0.05 | 76 | 1009.0 |
| 20260507031510 | 68 | 271 | 0.0 | 0.0 | 0.00 | 0.05 | 0.05 | 77 | 1009.0 |
| 20260507031011 | 68 | 271 | 0.0 | 2.6 | 0.00 | 0.05 | 0.05 | 77 | 1008.8 |
| 20260507030510 | 68 | 266 | 0.0 | 0.9 | 0.00 | 0.05 | 0.05 | 77 | 1008.7 |
| 20260507025510 | 68 | 212 | 0.0 | 2.6 | 0.00 | 0.05 | 0.05 | 78 | 1008.8 |
| 20260507025011 | 67 | 230 | 0.0 | 2.6 | 0.00 | 0.05 | 0.05 | 78 | 1008.8 |
| 20260507023511 | 67 | 268 | 0.0 | 0.0 | 0.00 | 0.05 | 0.05 | 79 | 1009.2 |
| 20260507023011 | 67 | 266 | 0.0 | 0.9 | 0.00 | 0.05 | 0.05 | 79 | 1009.2 |
| 20260507022510 | 67 | 68 | 0.0 | 0.9 | 0.00 | 0.05 | 0.05 | 79 | 1009.2 |
| 20260507022010 | 67 | 208 | 0.0 | 1.7 | 0.00 | 0.05 | 0.05 | 79 | 1009.3 |
| 20260507021510 | 67 | 271 | 0.0 | 0.0 | 0.00 | 0.05 | 0.05 | 79 | 1009.5 |
| 20260507021010 | 67 | 292 | 0.0 | 0.0 | 0.00 | 0.05 | 0.05 | 79 | 1009.6 |
| 20260507020010 | 67 | 293 | 0.0 | 0.0 | 0.00 | 0.05 | 0.05 | 79 | 1009.3 |
| 20260507015511 | 67 | 293 | 0.0 | 0.0 | 0.00 | 0.05 | 0.05 | 79 | 1009.4 |
| 20260507014510 | 67 | 293 | 0.0 | 0.0 | 0.00 | 0.05 | 0.05 | 79 | 1009.4 |
| 20260507013510 | 67 | 293 | 0.0 | 0.0 | 0.00 | 0.05 | 0.05 | 79 | 1009.1 |
| 20260507013010 | 67 | 293 | 0.0 | 0.0 | 0.00 | 0.05 | 0.05 | 79 | 1009.2 |
| 20260507012510 | 67 | 293 | 0.0 | 0.0 | 0.00 | 0.05 | 0.05 | 79 | 1009.1 |
| 20260507011510 | 67 | 293 | 0.0 | 0.0 | 0.00 | 0.05 | 0.05 | 78 | 1009.3 |
| 20260507011010 | 67 | 293 | 0.0 | 0.0 | 0.00 | 0.05 | 0.05 | 78 | 1009.4 |
| 20260507010510 | 67 | 293 | 0.0 | 0.0 | 0.00 | 0.05 | 0.05 | 78 | 1009.2 |
| 20260507010010 | 68 | 293 | 0.0 | 0.0 | 0.00 | 0.05 | 0.05 | 78 | 1009.1 |
| 20260507005510 | 68 | 293 | 0.0 | 0.0 | 0.00 | 0.05 | 0.05 | 77 | 1009.2 |
| 20260507004510 | 68 | 296 | 0.0 | 0.9 | 0.00 | 0.05 | 0.05 | 77 | 1009.3 |
| 20260507004010 | 68 | 127 | 0.0 | 0.0 | 0.01 | 0.05 | 0.05 | 77 | 1009.4 |
| 20260507003510 | 68 | 127 | 0.0 | 0.0 | 0.01 | 0.05 | 0.05 | 77 | 1009.3 |
| 20260507002510 | 68 | 127 | 0.0 | 0.0 | 0.01 | 0.05 | 0.05 | 76 | 1009.3 |
| 20260507002010 | 69 | 127 | 0.0 | 0.0 | 0.01 | 0.05 | 0.05 | 76 | 1009.3 |
| 20260507001510 | 69 | 127 | 0.0 | 0.9 | 0.01 | 0.05 | 0.05 | 76 | 1009.4 |
| 20260507001011 | 69 | 321 | 0.0 | 0.9 | 0.01 | 0.05 | 0.05 | 76 | 1009.4 |
| 20260507000010 | 69 | 321 | 0.0 | 0.0 | 0.01 | 0.05 | 0.05 | 76 | 1009.2 |
| 20260506235510 | 70 | 321 | 0.0 | 0.0 | 0.01 | 0.05 | 0.05 | 75 | 1009.0 |
| 20260506235010 | 70 | 321 | 0.0 | 0.0 | 0.01 | 0.05 | 0.05 | 74 | 1008.9 |
| 20260506234510 | 70 | 321 | 0.0 | 0.0 | 0.01 | 0.05 | 0.05 | 74 | 1008.8 |
| 20260506234010 | 70 | 321 | 0.0 | 0.0 | 0.00 | 0.04 | 0.04 | 73 | 1008.8 |
| 20260506233510 | 70 | 321 | 0.0 | 0.9 | 0.00 | 0.04 | 0.04 | 73 | 1008.9 |
| 20260506233010 | 70 | 321 | 0.0 | 0.9 | 0.00 | 0.04 | 0.04 | 73 | 1008.9 |
| 20260506232510 | 71 | 321 | 0.0 | 0.9 | 0.00 | 0.04 | 0.04 | 72 | 1009.0 |
| 20260506232010 | 71 | 314 | 0.0 | 0.0 | 0.00 | 0.04 | 0.04 | 72 | 1008.9 |
| 20260506231010 | 71 | 313 | 0.0 | 0.0 | 0.00 | 0.04 | 0.04 | 72 | 1009.0 |
| 20260506230510 | 71 | 312 | 0.0 | 0.0 | 0.00 | 0.04 | 0.04 | 71 | 1009.0 |
| 20260506225509 | 71 | 298 | 0.0 | 0.0 | 0.00 | 0.04 | 0.04 | 71 | 1008.9 |
| 20260506225010 | 72 | 298 | 0.0 | 0.0 | 0.00 | 0.04 | 0.04 | 70 | 1009.0 |
| 20260506223509 | 72 | 272 | 0.0 | 0.9 | 0.00 | 0.04 | 0.04 | 69 | 1008.9 |
| 20260506223009 | 72 | 272 | 0.0 | 0.0 | 0.00 | 0.04 | 0.04 | 67 | 1008.9 |
| 20260506222510 | 72 | 272 | 0.0 | 0.9 | 0.00 | 0.04 | 0.04 | 67 | 1008.9 |
| 20260506222010 | 72 | 231 | 0.0 | 2.6 | 0.00 | 0.04 | 0.04 | 66 | 1008.8 |
| 20260506221010 | 72 | 186 | 0.9 | 6.1 | 0.00 | 0.04 | 0.04 | 66 | 1008.8 |
| 20260506220510 | 72 | 253 | 0.0 | 1.7 | 0.00 | 0.04 | 0.04 | 65 | 1008.8 |
| 20260506220010 | 72 | 299 | 0.0 | 0.9 | 0.00 | 0.04 | 0.04 | 65 | 1008.9 |
| 20260506215510 | 72 | 285 | 0.0 | 0.0 | 0.00 | 0.04 | 0.04 | 66 | 1008.9 |
| 20260506215010 | 72 | 216 | 0.0 | 0.0 | 0.00 | 0.04 | 0.04 | 66 | 1008.9 |
| 20260506214510 | 72 | 214 | 0.0 | 1.7 | 0.00 | 0.04 | 0.04 | 65 | 1009.1 |
| 20260506214009 | 72 | 263 | 0.0 | 1.7 | 0.00 | 0.04 | 0.04 | 66 | 1009.2 |
| 20260506213510 | 72 | 94 | 0.0 | 0.9 | 0.00 | 0.04 | 0.04 | 65 | 1009.2 |
| 20260506213010 | 72 | 138 | 0.9 | 4.3 | 0.00 | 0.04 | 0.04 | 66 | 1009.3 |
| 20260506212510 | 72 | 202 | 0.9 | 5.2 | 0.00 | 0.04 | 0.04 | 66 | 1009.1 |
| 20260506212009 | 72 | 325 | 0.0 | 1.7 | 0.00 | 0.04 | 0.04 | 67 | 1009.1 |
| 20260506211510 | 72 | 291 | 0.9 | 6.1 | 0.00 | 0.04 | 0.04 | 68 | 1008.9 |
| 20260506211010 | 71 | 261 | 0.9 | 2.6 | 0.00 | 0.04 | 0.04 | 68 | 1009.0 |
| 20260506210009 | 71 | 263 | 0.9 | 2.6 | 0.00 | 0.04 | 0.04 | 68 | 1009.0 |
| 20260506205510 | 71 | 215 | 0.0 | 1.7 | 0.00 | 0.04 | 0.04 | 71 | 1009.0 |
| 20260506205010 | 71 | 251 | 0.0 | 6.1 | 0.00 | 0.04 | 0.04 | 70 | 1009.0 |
| 20260506204510 | 71 | 134 | 0.9 | 1.7 | 0.00 | 0.04 | 0.04 | 70 | 1008.9 |
| 20260506204010 | 71 | 208 | 0.0 | 2.6 | 0.00 | 0.04 | 0.04 | 71 | 1009.0 |
| 20260506203510 | 70 | 298 | 0.0 | 2.6 | 0.00 | 0.04 | 0.04 | 73 | 1008.9 |
| 20260506203009 | 70 | 297 | 0.0 | 2.6 | 0.00 | 0.04 | 0.04 | 72 | 1008.9 |
| 20260506202509 | 70 | 247 | 0.9 | 2.6 | 0.00 | 0.04 | 0.04 | 74 | 1008.8 |
| 20260506201511 | 70 | 256 | 0.0 | 2.6 | 0.00 | 0.04 | 0.04 | 72 | 1008.7 |
| 20260506201009 | 70 | 310 | 0.0 | 0.9 | 0.00 | 0.04 | 0.04 | 73 | 1008.7 |
| 20260506200009 | 69 | 263 | 0.0 | 1.7 | 0.00 | 0.04 | 0.04 | 74 | 1008.3 |
| 20260506195510 | 69 | 319 | 0.0 | 2.6 | 0.00 | 0.04 | 0.04 | 75 | 1008.2 |
| 20260506194509 | 69 | 289 | 0.0 | 0.0 | 0.00 | 0.04 | 0.04 | 77 | 1008.5 |
| 20260506194010 | 69 | 274 | 0.0 | 0.9 | 0.00 | 0.04 | 0.04 | 76 | 1008.6 |
| 20260506193510 | 68 | 256 | 0.0 | 1.7 | 0.00 | 0.04 | 0.04 | 76 | 1008.7 |
| 20260506192509 | 68 | 315 | 0.0 | 0.9 | 0.00 | 0.04 | 0.04 | 76 | 1008.9 |
| 20260506192009 | 67 | 252 | 0.0 | 1.7 | 0.00 | 0.04 | 0.04 | 77 | 1009.2 |
| 20260506191510 | 67 | 255 | 0.0 | 0.0 | 0.00 | 0.04 | 0.04 | 77 | 1009.1 |
| 20260506191010 | 67 | 255 | 0.0 | 0.0 | 0.00 | 0.04 | 0.04 | 78 | 1008.8 |
| 20260506190510 | 67 | 247 | 0.0 | 0.0 | 0.00 | 0.04 | 0.04 | 78 | 1009.0 |
| 20260506190009 | 67 | 208 | 0.0 | 0.0 | 0.00 | 0.04 | 0.04 | 78 | 1009.1 |
| 20260506185509 | 66 | 211 | 0.0 | 0.0 | 0.00 | 0.04 | 0.04 | 78 | 1009.4 |
| 20260506184510 | 66 | 227 | 0.0 | 2.6 | 0.00 | 0.04 | 0.04 | 78 | 1009.7 |
| 20260506184009 | 67 | 124 | 0.0 | 1.7 | 0.00 | 0.04 | 0.04 | 78 | 1009.9 |
| 20260506183509 | 66 | 352 | 0.0 | 1.7 | 0.00 | 0.04 | 0.04 | 78 | 1010.1 |
| 20260506182510 | 66 | 198 | 0.0 | 0.0 | 0.00 | 0.04 | 0.04 | 78 | 1010.2 |
| 20260506182010 | 66 | 204 | 0.0 | 2.6 | 0.00 | 0.04 | 0.04 | 77 | 1010.3 |
| 20260506181509 | 67 | 301 | 0.0 | 0.9 | 0.00 | 0.04 | 0.04 | 78 | 1010.4 |
| 20260506181009 | 67 | 279 | 0.0 | 0.9 | 0.00 | 0.04 | 0.04 | 77 | 1010.5 |
| 20260506180510 | 67 | 179 | 0.0 | 0.0 | 0.00 | 0.04 | 0.04 | 76 | 1010.7 |
| 20260506180010 | 67 | 178 | 0.0 | 1.7 | 0.00 | 0.04 | 0.04 | 75 | 1010.6 |
| 20260506175509 | 67 | 278 | 0.0 | 1.7 | 0.00 | 0.04 | 0.04 | 75 | 1010.7 |
| 20260506175009 | 67 | 275 | 0.9 | 1.7 | 0.00 | 0.04 | 0.04 | 75 | 1010.7 |
| 20260506174509 | 67 | 297 | 0.0 | 1.7 | 0.00 | 0.04 | 0.04 | 75 | 1010.6 |
| 20260506174010 | 66 | 222 | 0.9 | 2.6 | 0.00 | 0.04 | 0.04 | 75 | 1010.6 |
| 20260506172509 | 66 | 325 | 0.0 | 1.7 | 0.00 | 0.04 | 0.04 | 76 | 1010.4 |
| 20260506172009 | 66 | 237 | 0.0 | 1.7 | 0.00 | 0.04 | 0.04 | 77 | 1010.4 |
| 20260506171010 | 65 | 321 | 0.0 | 1.7 | 0.00 | 0.04 | 0.04 | 77 | 1010.6 |
| 20260506170509 | 65 | 264 | 0.9 | 2.6 | 0.00 | 0.04 | 0.04 | 77 | 1010.8 |
| 20260506170010 | 65 | 310 | 0.0 | 2.6 | 0.00 | 0.04 | 0.04 | 78 | 1010.6 |
| 20260506165010 | 65 | 199 | 0.0 | 0.0 | 0.00 | 0.04 | 0.04 | 79 | 1010.6 |
| 20260506164509 | 65 | 265 | 0.0 | 4.3 | 0.00 | 0.04 | 0.04 | 78 | 1010.7 |
| 20260506164010 | 65 | 285 | 0.0 | 0.0 | 0.00 | 0.04 | 0.04 | 79 | 1010.6 |
| 20260506163009 | 65 | 187 | 0.0 | 2.6 | 0.00 | 0.04 | 0.04 | 79 | 1010.8 |
| 20260506162509 | 65 | 183 | 0.0 | 0.0 | 0.00 | 0.04 | 0.04 | 79 | 1011.0 |
| 20260506162010 | 65 | 183 | 0.0 | 2.6 | 0.00 | 0.04 | 0.04 | 78 | 1010.9 |
| 20260506161510 | 65 | 125 | 0.0 | 2.6 | 0.00 | 0.04 | 0.04 | 79 | 1010.8 |
| 20260506161010 | 65 | 116 | 0.0 | 2.6 | 0.01 | 0.04 | 0.04 | 80 | 1010.9 |
| 20260506160509 | 64 | 281 | 0.0 | 0.9 | 0.02 | 0.04 | 0.04 | 80 | 1011.1 |
| 20260506160009 | 64 | 154 | 0.0 | 0.0 | 0.03 | 0.04 | 0.04 | 80 | 1011.1 |
| 20260506155509 | 64 | 155 | 0.0 | 0.9 | 0.03 | 0.04 | 0.04 | 80 | 1011.2 |
| 20260506155010 | 64 | 263 | 0.0 | 0.0 | 0.03 | 0.04 | 0.04 | 80 | 1011.4 |
| 20260506154509 | 64 | 273 | 0.0 | 0.0 | 0.03 | 0.04 | 0.04 | 81 | 1011.5 |
| 20260506154009 | 64 | 277 | 0.0 | 0.0 | 0.03 | 0.04 | 0.04 | 80 | 1011.6 |
| 20260506153509 | 64 | 280 | 0.0 | 0.0 | 0.03 | 0.04 | 0.04 | 80 | 1011.5 |
| 20260506152510 | 64 | 297 | 0.0 | 0.0 | 0.03 | 0.04 | 0.04 | 80 | 1011.5 |
| 20260506152009 | 64 | 298 | 0.0 | 0.0 | 0.03 | 0.04 | 0.04 | 79 | 1011.7 |